Regional Weather Roundup
Issued by NWS

Home | Current Version | Previous Version | Graphics & Text | Print | Product List | Glossary On
Versions: 1 2 3 4 5 6 7 8 9 10 11 12 13 14 15 16 17 18 19 20 21 22 23 24 25 26 27 28 29 30 31 32 33 34 35 36 37 38 39 40 41 42 43 44 45 46 47 48 49 50
000
ASUS43 KMPX 281910
RWRMN
WEATHER ROUNDUP FOR MINNESOTA
NATIONAL WEATHER SERVICE TWIN CITIES/CHANHASSEN MN
200 PM CDT FRI AUG 28 2015


NOTE: "FAIR" INDICATES FEW OR NO CLOUDS BELOW 12,000 FEET WITH NO
SIGNIFICANT WEATHER AND/OR OBSTRUCTIONS TO VISIBILITY. N/A MEANS
CURRENT SKY AND/OR WEATHER CONDITIONS ARE NOT AVAILABLE.

MNZ060>063-068>070-282000-
   Twin Cities Metro

CITY           SKY/WX    TMP DP  RH WIND       PRES   REMARKS
TWIN CITIES    PTSUNNY   74  64  71 SE10      30.00F
ST PAUL        PTSUNNY   73  64  73 SE13      30.00F
CRYSTAL        PTSUNNY   78  61  55 SE13      29.98F
BLAINE         MOSUNNY   79  64  61 SE8       30.00F
LAKEVILLE      CLOUDY    72  64  78 SE8       30.01F
EDEN PRAIRIE   PTSUNNY   75  64  68 SE13      29.99F
SOUTH ST PAUL  PTSUNNY   74  64  70 SE8       30.00F
LAKE ELMO      FAIR      73  64  73 SE12      30.01F
$$
MNZ001>005-007-008-013>017-022>024-027-028-282000-
   Northwest Minnesota

CITY           SKY/WX    TMP DP  RH WIND       PRES   REMARKS
BEMIDJI        MOSUNNY   78  65  65 SW10G16   29.92F
HALLOCK        MOSUNNY   81  68  65 SW14      29.80R
ROSEAU         PTSUNNY   81  70  69 SW8       29.83F
WARROAD        PTSUNNY   73  70  88 CALM      29.84F
THIEF RVR FALL PTSUNNY  N/A N/A N/A S17G24    29.83F
CROOKSTON      PTSUNNY   82  68  61 SW23G29   29.85F
FOSSTON        MOSUNNY   77  63  61 S20       29.90F
DETROIT LAKES  SUNNY     77  64  65 S13       29.96F
MOORHEAD       SUNNY     79  66  65 S12G17    29.93S
PARK RAPIDS    MOSUNNY   81  64  56 S9        29.96F
MAHNOMEN       FAIR      77  67  71 S16       29.92F
$$
MNZ006-009>011-018-025>026-282000-
   North Central Minnesota

CITY           SKY/WX    TMP DP  RH WIND       PRES   REMARKS
BAUDETTE       CLOUDY    75  67  76 VRB6      29.86R
FLAG ISLAND    MOSUNNY   70  64  83 S8        29.83S
INTL FALLS     CLOUDY    75  69  81 S6        29.85F
WASKISH        CLOUDY    79  70  73 S6        29.87R
BIG FORK       MOSUNNY   79  66  65 S9        29.90F
LONGVILLE      SUNNY     81  64  57 S6        29.96F
GRAND RAPIDS     N/A     77  64  65 SW14G20   29.96F
CRANE LAKE     CLOUDY    70  66  88 S9G18     29.88F
ORR            PTSUNNY   73  63  68 S9        29.88F
COOK           PTSUNNY   73  64  73 W12       29.93F
WALKER         FAIR      78  65  63 SW12G20   29.94F
$$
MNZ012-019>021-037-282000-
   Northeast Minnesota

CITY           SKY/WX    TMP DP  RH WIND       PRES   REMARKS
DULUTH         MOSUNNY   74  64  71 SW13      29.98F
ELY            CLOUDY    70  64  83 SW8       29.96R
HIBBING        MOSUNNY   77  66  68 SW9       29.96F
EVELETH        CLOUDY    72  64  78 SW7       29.97F
DULUTH HARBOR  MOSUNNY   79  66  65 SW10      29.97R
TWO HARBORS    MOSUNNY   79  68  69 W12G18    29.95F
SILVER BAY     SUNNY     73  64  73 S7        29.93F
GRAND MARAIS     N/A     57  49  74 SW3       29.95F
G MARAIS ARPRT MOSUNNY   70  57  64 S6        29.98F
$$
MNZ029>031-032-039>041-046>048-054>057-064-282000-
   West Central Minnesota

CITY           SKY/WX    TMP DP  RH WIND       PRES   REMARKS
FERGUS FALLS   CLOUDY    73  64  73 SW8       29.96S
WHEATON        MOSUNNY   73  64  73 S9G16     29.97F
MORRIS         MOSUNNY   77  64  65 SE14      29.96S
ALEXANDRIA     SUNNY     78  65  63 S10       29.99S
ELBOW LAKE     PTSUNNY   76  66  71 SW10G16   29.97S
WADENA         MOSUNNY   79  63  57 SW13      29.97S
GLENWOOD       MOSUNNY   77  64  65 S15       29.99S
APPLETON       MOSUNNY   77  63  61 S7        29.96S
BENSON         MOSUNNY   79  63  57 S10       29.97S
ORTONVILLE     MOSUNNY   77  64  65 SE7       29.96S
MADISON        MOSUNNY   75  64  69 SE9       29.96F
WILLMAR          N/A     77  64  65 S8          N/A
$$
MNZ033>034-036-042>043-049>051-058-059-282000-
   Central Minnesota

CITY           SKY/WX    TMP DP  RH WIND       PRES   REMARKS
ST CLOUD       MOSUNNY   78  62  57 S14       29.98F
SAUK CENTRE    MOCLDY    76  65  67 S10G16    29.99R
PAYNESVILLE    MOSUNNY   77  62  59 SE7       29.98F
AITKIN         SUNNY     79  64  61 SW8       29.98S
PINE RIVER     SUNNY     79  64  61 S8        30.00F
BRAINERD       SUNNY     78  63  59 SW10      29.99S
STAPLES        SUNNY     79  63  57 S9G16     29.99R
LONG PRAIRIE   FAIR      75  64  69 SE7       30.00R
LITTLE FALLS   SUNNY     77  59  53 S10       29.98S
LITCHFIELD     MOSUNNY   79  64  61 S5        29.99F
BUFFALO        MOSUNNY   76  61  58 SE10G16   30.00F
MAPLE LAKE     MOSUNNY   78  67  68 S6        30.00F
$$
MNZ037-044-045-052-053-282000-
   East Central Minnesota

CITY           SKY/WX    TMP DP  RH WIND       PRES   REMARKS
PRINCETON      MOSUNNY   81  64  57 SE10      29.99S
MORA           MOSUNNY   75  61  60 S10       30.01S
CAMBRIDGE      MOSUNNY   81  63  54 S13       29.98S
RUSH CITY      MOSUNNY   77  64  64 S8        30.00F
MOOSE LAKE     PTSUNNY   79  64  61 SW5       29.98R
HINCKLEY       FAIR      79  64  61 S13       30.00S
CLOQUET        PTSUNNY   77  63  61 SW7       29.99R
MCGREGOR       MOSUNNY   77  64  65 W7        30.01R
$$
MNZ071>073-080-081-089-090-097-098-282000-
   Southwest Minnesota

CITY           SKY/WX    TMP DP  RH WIND       PRES   REMARKS
MONTEVIDEO     MOSUNNY   79  64  61 SW8       29.99F
GRANITE FALLS  PTSUNNY   73  62  67 SE10      29.99S
CANBY          CLOUDY    74  65  72 SE12      29.98F
MARSHALL       PTSUNNY   73  59  60 SE18      29.98F
REDWOOD FALLS  PTSUNNY   75  62  64 SE18G25   29.97F
OLIVIA         PTSUNNY   72  59  64 SE13G20   29.98S
PIPESTONE      CLOUDY    70  63  78 E13G18    29.97F
WINDOM         CLOUDY    64  63  94 E14       29.97F FOG
WORTHINGTON    CLOUDY    66  59  77 E21G31    29.94F
JACKSON        CLOUDY    64  63  94 E17G25    29.97S FOG
TRACY          CLOUDY    71  63  76 SE15G23   29.98F
SLAYTON        CLOUDY    66  62  86 E14G21    29.99R
$$
MNZ065>067-074>077-082>085-091>093-282000-
   South Central Minnesota

CITY           SKY/WX    TMP DP  RH WIND       PRES   REMARKS
MANKATO        CLOUDY    70  61  73 SE20      29.99S
NEW ULM        PTSUNNY   70  63  78 SE13G24   29.98F
ST JAMES       CLOUDY    66  64  94 E12       30.00F
FAIRMONT       PTSUNNY   63  55  77 E20       29.98S
GLENCOE        PTSUNNY   76  65  67 SE10G16   29.98F
FARIBAULT      DRIZZLE   70  64  83 SE15      30.01R
OWATONNA       LGT RAIN  64  61  88 SE20G26   30.01S
WASECA         DRIZZLE   63  61  94 MISG      30.02S
ALBERT LEA     RAIN      61  61 100 SE12G17   30.03R
$$
MNZ078>079-086>088-094>096-282000-
   Southeast Minnesota

CITY           SKY/WX    TMP DP  RH WIND       PRES   REMARKS
ROCHESTER      LGT RAIN  60  58  92 SE10      30.06R FOG
RED WING       CLOUDY    70  64  83 SE8       30.00R
STANTON        CLOUDY    71  64  77 SE3       30.00R
DODGE CENTER   HVY RAIN  61  59  94 SE8       30.05R
WINONA         RAIN      63  61  94 SE6       30.03S
AUSTIN         CLOUDY    61  59  94 S7        30.04R
PRESTON        HVY RAIN  58  56  92 CALM      30.06R
$$
ABBREVIATIONS USED IN REMARKS
   TC - TEMPERATURES IN CELSIUS
  WCI - WIND CHILL INDEX
   HX - HEAT INDEX
  VSB - VISIBILITY
$$


USA.gov is the U.S. government's official web portal to all federal, state and local government web resources and services.